,,Stat6,,Stat2,,Stat8,,Stat9,,Stat10,,Wind1,,Wind1,
time,status,PA1M_AVG,status,PR1M_SUM,status,RH1M_AVG,status,SR1M_AVG,status,TA1M_AVG,status,W1dAve1m,status,W1sAve1m,
2006-12-20, 00:00:01,VALID,917.135,VALID,0,VALID,95.3068,VALID,-0.0169808,VALID,19.9255,VALID,17,VALID,1.76749,
2006-12-20, 00:01:01,VALID,917.114,VALID,0,VALID,95.3576,VALID,-0.0339617,VALID,19.9091,VALID,12,VALID,1.60528,
2006-12-20, 00:02:01,VALID,917.107,VALID,0,VALID,95.1631,VALID,-0.0679233,VALID,19.9064,VALID,16,VALID,2.53963,
2006-12-20, 00:03:01,VALID,917.086,VALID,0,VALID,94.8274,VALID,-0.0339617,VALID,19.9416,VALID,17,VALID,2.63512,
2006-12-20, 00:04:01,VALID,917.068,VALID,0,VALID,94.7384,VALID,-0.0679233,VALID,19.9868,VALID,12,VALID,2.32252,
2006-12-20, 00:05:01,VALID,917.063,VALID,0,VALID,94.6862,VALID,-0.0509425,VALID,20.0062,VALID,27,VALID,1.93007,
2006-12-20, 00:06:00,VALID,917.05,VALID,0,VALID,94.7498,VALID,-0.0169808,VALID,19.9963,VALID,29,VALID,2.23715,
2006-12-20, 00:07:00,VALID,917.047,VALID,0,VALID,94.6951,VALID,-0.0169808,VALID,20.0002,VALID,23,VALID,2.44495,
2006-12-20, 00:08:00,VALID,917.056,VALID,0,VALID,94.6506,VALID,-0.0509425,VALID,20.029,VALID,26,VALID,2.30755,
2006-12-20, 00:09:00,VALID,917.05,VALID,0,VALID,94.7701,VALID,0,VALID,20.0352,VALID,24,VALID,1.7807,
2006-12-20, 00:10:00,VALID,917.052,VALID,0,VALID,94.8782,VALID,-0.0339617,VALID,20.0159,VALID,8,VALID,2.49442,
2006-12-20, 00:11:00,VALID,917.058,VALID,0,VALID,94.8426,VALID,0,VALID,20.0064,VALID,19,VALID,2.70443,
2006-12-20, 00:12:00,VALID,917.057,VALID,0,VALID,94.9571,VALID,0,VALID,20.0129,VALID,15,VALID,2.04847,
2006-12-20, 00:13:00,VALID,917.082,VALID,0,VALID,95.0741,VALID,-0.0849042,VALID,20.0062,VALID,2,VALID,1.90949,
2006-12-20, 00:14:00,VALID,917.084,VALID,0,VALID,95.0321,VALID,-0.0169808,VALID,19.9898,VALID,1,VALID,2.06555,
2006-12-20, 00:15:00,VALID,917.061,VALID,0,VALID,94.9965,VALID,-0.0339617,VALID,19.9935,VALID,13,VALID,1.9444,
2006-12-20, 00:16:00,VALID,917.039,VALID,0,VALID,94.4357,VALID,-0.0339617,VALID,20.0258,VALID,12,VALID,2.17634,
2006-12-20, 00:17:00,VALID,917.034,VALID,0,VALID,94.2882,VALID,0,VALID,20.0869,VALID,15,VALID,2.27437,
2006-12-20, 00:18:00,VALID,917.04,VALID,0,VALID,94.2272,VALID,-0.0339617,VALID,20.1127,VALID,15,VALID,2.09375,
2006-12-20, 00:19:00,VALID,917.019,VALID,0,VALID,94.4141,VALID,-0.0339617,VALID,20.1197,VALID,14,VALID,1.7766,
2006-12-20, 00:20:00,VALID,917.03,VALID,0,VALID,94.3734,VALID,0,VALID,20.0829,VALID,17,VALID,2.4516,
2006-12-20, 00:21:00,VALID,917.015,VALID,0,VALID,94.47,VALID,-0.0169808,VALID,20.0867,VALID,6,VALID,1.71684,
2006-12-20, 00:22:00,VALID,917.017,VALID,0,VALID,94.4929,VALID,-0.0339617,VALID,20.0703,VALID,7,VALID,1.80278,
2006-12-20, 00:23:00,VALID,917.005,VALID,0,VALID,94.4828,VALID,0,VALID,20.0698,VALID,20,VALID,2.42278,
2006-12-20, 00:24:00,VALID,916.998,VALID,0,VALID,94.217,VALID,-0.0339617,VALID,20.0899,VALID,32,VALID,2.43236,
2006-12-20, 00:25:00,VALID,916.98,VALID,0,VALID,94.1115,VALID,-0.0509425,VALID,20.1189,VALID,22,VALID,2.40225,
2006-12-20, 00:26:00,VALID,916.948,VALID,0,VALID,94.156,VALID,-0.0509425,VALID,20.1353,VALID,16,VALID,1.10435,
2006-12-20, 00:27:00,VALID,916.926,VALID,0,VALID,94.3365,VALID,0,VALID,20.1219,VALID,25,VALID,1.68889,
2006-12-20, 00:28:00,VALID,916.926,VALID,0,VALID,94.3492,VALID,0,VALID,20.0993,VALID,18,VALID,1.79524,
2006-12-20, 00:29:00,VALID,916.928,VALID,0,VALID,94.2361,VALID,0,VALID,20.0993,VALID,3,VALID,2.31806,
2006-12-20, 00:30:00,VALID,916.93,VALID,0,VALID,94.1687,VALID,-0.0169808,VALID,20.108,VALID,19,VALID,1.65859,
2006-12-20, 00:31:00,VALID,916.919,VALID,0,VALID,94.1153,VALID,-0.0169808,VALID,20.1313,VALID,26,VALID,2.19893,
2006-12-20, 00:32:00,VALID,916.928,VALID,0,VALID,94.1458,VALID,0,VALID,20.1251,VALID,32,VALID,1.94477,
2006-12-20, 00:33:00,VALID,916.927,VALID,0,VALID,93.9932,VALID,0,VALID,20.1313,VALID,33,VALID,2.23328,
2006-12-20, 00:34:00,VALID,916.946,VALID,0,VALID,94.0441,VALID,0,VALID,20.151,VALID,33,VALID,1.59961,
2006-12-20, 00:35:00,VALID,916.91,VALID,0,VALID,94.0949,VALID,0,VALID,20.141,VALID,22,VALID,1.67016,
2006-12-20, 00:36:00,VALID,916.911,VALID,0,VALID,94.2094,VALID,-0.0169808,VALID,20.1212,VALID,38,VALID,1.26079,
2006-12-20, 00:37:00,VALID,916.888,VALID,0,VALID,94.2577,VALID,-0.0339617,VALID,20.109,VALID,30,VALID,1.47991,
2006-12-20, 00:38:00,VALID,916.879,VALID,0,VALID,94.2602,VALID,-0.0169808,VALID,20.0822,VALID,32,VALID,1.61464,
2006-12-20, 00:39:00,VALID,916.858,VALID,0,VALID,94.3543,VALID,0,VALID,20.0861,VALID,39,VALID,2.13336,
2006-12-20, 00:40:00,VALID,916.858,VALID,0,VALID,94.3467,VALID,0,VALID,20.0735,VALID,31,VALID,2.07143,
2006-12-20, 00:41:00,VALID,916.876,VALID,0,VALID,94.3607,VALID,0.0169808,VALID,20.0601,VALID,28,VALID,1.75107,
2006-12-20, 00:42:00,VALID,916.863,VALID,0,VALID,94.4052,VALID,0,VALID,20.0603,VALID,28,VALID,1.69695,
2006-12-20, 00:43:00,VALID,916.84,VALID,0,VALID,94.4192,VALID,-0.0169808,VALID,20.0571,VALID,30,VALID,1.31386,
2006-12-20, 00:44:00,VALID,916.839,VALID,0,VALID,94.3492,VALID,-0.0169808,VALID,20.0377,VALID,41,VALID,1.8577,
2006-12-20, 00:45:00,VALID,916.82,VALID,0,VALID,94.334,VALID,-0.0339617,VALID,20.0509,VALID,23,VALID,1.51767,
2006-12-20, 00:46:00,VALID,916.81,VALID,0,VALID,94.4713,VALID,-0.0509425,VALID,20.0506,VALID,30,VALID,1.41006,
2006-12-20, 00:47:00,VALID,916.787,VALID,0,VALID,94.4904,VALID,-0.0169808,VALID,20.0375,VALID,29,VALID,2.33836,
2006-12-20, 00:48:00,VALID,916.77,VALID,0,VALID,94.47,VALID,-0.0339617,VALID,20.0345,VALID,30,VALID,2.25019,
2006-12-20, 00:49:00,VALID,916.754,VALID,0,VALID,94.5171,VALID,-0.0339617,VALID,20.0412,VALID,25,VALID,1.85102,
2006-12-20, 00:50:00,VALID,916.747,VALID,0,VALID,94.4726,VALID,-0.0509425,VALID,20.0382,VALID,20,VALID,2.04594,
2006-12-20, 00:51:00,VALID,916.73,VALID,0,VALID,94.2933,VALID,-0.0169808,VALID,20.0375,VALID,34,VALID,1.93255,
2006-12-20, 00:52:00,VALID,916.738,VALID,0,VALID,94.1305,VALID,-0.0339617,VALID,20.0638,VALID,26,VALID,2.28888,
2006-12-20, 00:53:00,VALID,916.72,VALID,0,VALID,93.8304,VALID,-0.0679233,VALID,20.1025,VALID,28,VALID,2.4628,
2006-12-20, 00:54:00,VALID,916.68,VALID,0,VALID,93.7084,VALID,-0.0849042,VALID,20.145,VALID,27,VALID,1.99769,
2006-12-20, 00:55:00,VALID,916.686,VALID,0,VALID,93.6575,VALID,-0.0679233,VALID,20.1515,VALID,26,VALID,2.26749,
2006-12-20, 00:56:00,VALID,916.674,VALID,0,VALID,93.8139,VALID,-0.0339617,VALID,20.1639,VALID,19,VALID,1.59913,
2006-12-20, 00:57:00,VALID,916.663,VALID,0,VALID,93.8762,VALID,-0.0169808,VALID,20.1579,VALID,18,VALID,1.88576,
2006-12-20, 00:58:00,VALID,916.666,VALID,0,VALID,94.011,VALID,-0.0169808,VALID,20.1418,VALID,28,VALID,1.9072,
2006-12-20, 00:59:00,VALID,916.668,VALID,0,VALID,94.0657,VALID,-0.0509425,VALID,20.1149,VALID,24,VALID,1.64348,
2006-12-20, 01:00:00,VALID,916.681,VALID,0,VALID,94.1064,VALID,-0.0169808,VALID,20.1179,VALID,29,VALID,1.74219,
2006-12-20, 01:01:00,VALID,916.679,VALID,0,VALID,94.161,VALID,-0.0339617,VALID,20.1157,VALID,28,VALID,1.80301,
2006-12-20, 01:02:00,VALID,916.672,VALID,0,VALID,94.1941,VALID,0,VALID,20.1025,VALID,8,VALID,1.51635,
2006-12-20, 01:03:00,VALID,916.668,VALID,0,VALID,94.1623,VALID,-0.0509425,VALID,20.0993,VALID,16,VALID,1.37054,
2006-12-20, 01:04:00,VALID,916.665,VALID,0,VALID,94.142,VALID,-0.0169808,VALID,20.105,VALID,12,VALID,1.55248,
2006-12-20, 01:05:00,VALID,916.652,VALID,0,VALID,94.0631,VALID,-0.0339617,VALID,20.1149,VALID,24,VALID,1.89826,
2006-12-20, 01:06:00,VALID,916.638,VALID,0,VALID,94.0453,VALID,0,VALID,20.1448,VALID,38,VALID,1.42188,
2006-12-20, 01:07:00,VALID,916.639,VALID,0,VALID,93.9919,VALID,-0.0169808,VALID,20.1343,VALID,32,VALID,1.55362,
2006-12-20, 01:08:00,VALID,916.632,VALID,0,VALID,94.0402,VALID,-0.0679233,VALID,20.1415,VALID,40,VALID,1.35804,
2006-12-20, 01:09:00,VALID,916.619,VALID,0,VALID,94.1763,VALID,-0.0509425,VALID,20.1415,VALID,42,VALID,1.59157,
2006-12-20, 01:10:00,VALID,916.607,VALID,0,VALID,94.3492,VALID,-0.0169808,VALID,20.1256,VALID,39,VALID,1.84623,
2006-12-20, 01:11:00,VALID,916.599,VALID,0,VALID,94.5463,VALID,0,VALID,20.0961,VALID,28,VALID,1.75133,
2006-12-20, 01:12:00,VALID,916.595,VALID,0,VALID,94.6239,VALID,0,VALID,20.0633,VALID,28,VALID,1.69629,
2006-12-20, 01:13:00,VALID,916.581,VALID,0,VALID,94.6214,VALID,0,VALID,20.0442,VALID,20,VALID,1.75401,
2006-12-20, 01:14:00,VALID,916.569,VALID,0,VALID,94.6748,VALID,-0.0169808,VALID,20.0404,VALID,19,VALID,1.75586,
2006-12-20, 01:15:00,VALID,916.574,VALID,0,VALID,94.7028,VALID,-0.0169808,VALID,20.0477,VALID,5,VALID,1.30602,
2006-12-20, 01:16:00,VALID,916.555,VALID,0,VALID,94.7142,VALID,-0.0509425,VALID,20.0447,VALID,12,VALID,1.2351,
2006-12-20, 01:17:00,VALID,916.538,VALID,0,VALID,94.6849,VALID,-0.0679233,VALID,20.0514,VALID,26,VALID,1.56541,
2006-12-20, 01:18:00,VALID,916.512,VALID,0,VALID,94.6493,VALID,-0.0169808,VALID,20.0477,VALID,32,VALID,1.38733,
2006-12-20, 01:19:00,VALID,916.484,VALID,0,VALID,94.5425,VALID,-0.0339617,VALID,20.0511,VALID,33,VALID,1.41715,
2006-12-20, 01:20:00,VALID,916.466,VALID,0,VALID,94.4993,VALID,-0.0339617,VALID,20.0643,VALID,32,VALID,1.3343,
2006-12-20, 01:21:00,VALID,916.461,VALID,0,VALID,94.4713,VALID,-0.0509425,VALID,20.0673,VALID,20,VALID,1.51726,
2006-12-20, 01:22:00,VALID,916.45,VALID,0,VALID,94.4128,VALID,0,VALID,20.0635,VALID,21,VALID,1.81555,
2006-12-20, 01:23:00,VALID,916.457,VALID,0,VALID,94.4472,VALID,0,VALID,20.0673,VALID,20,VALID,1.74818,
2006-12-20, 01:24:00,VALID,916.454,VALID,0,VALID,94.4586,VALID,0,VALID,20.0635,VALID,23,VALID,1.66126,
2006-12-20, 01:25:00,VALID,916.444,VALID,0,VALID,94.4497,VALID,-0.0169808,VALID,20.0606,VALID,27,VALID,1.48209,
2006-12-20, 01:26:00,VALID,916.429,VALID,0,VALID,94.3581,VALID,-0.0509425,VALID,20.0539,VALID,30,VALID,1.47366,
2006-12-20, 01:27:00,VALID,916.431,VALID,0,VALID,94.3454,VALID,0,VALID,20.0635,VALID,28,VALID,1.10766,
2006-12-20, 01:28:00,VALID,916.433,VALID,0,VALID,94.2615,VALID,0,VALID,20.0703,VALID,44,VALID,1.2662,
2006-12-20, 01:29:00,VALID,916.412,VALID,0,VALID,94.2399,VALID,0,VALID,20.0789,VALID,43,VALID,1.20703,
2006-12-20, 01:30:00,VALID,916.413,VALID,0,VALID,94.3225,VALID,0.0509425,VALID,20.0876,VALID,49,VALID,0.961119,
2006-12-20, 01:31:00,VALID,916.405,VALID,0,VALID,94.409,VALID,0.0679233,VALID,20.0814,VALID,38,VALID,1.36364,
2006-12-20, 01:32:00,VALID,916.395,VALID,0,VALID,94.5082,VALID,0.101885,VALID,20.0653,VALID,360,VALID,0.822917,
2006-12-20, 01:33:00,VALID,916.387,VALID,0,VALID,94.6163,VALID,0.101885,VALID,20.0596,VALID,16,VALID,1.50818,
2006-12-20, 01:34:00,VALID,916.401,VALID,0,VALID,94.7422,VALID,0.101885,VALID,20.033,VALID,24,VALID,1.67759,
2006-12-20, 01:35:00,VALID,916.382,VALID,0,VALID,94.6989,VALID,0.0849042,VALID,20.0166,VALID,35,VALID,1.7373,
2006-12-20, 01:36:00,VALID,916.378,VALID,0,VALID,94.5006,VALID,0.0679233,VALID,20.0203,VALID,34,VALID,2.01829,
2006-12-20, 01:37:00,VALID,916.407,VALID,0,VALID,94.498,VALID,0.101885,VALID,20.0397,VALID,24,VALID,1.54462,
2006-12-20, 01:38:00,VALID,916.418,VALID,0,VALID,94.5832,VALID,0.0849042,VALID,20.0526,VALID,7,VALID,1.3006,
2006-12-20, 01:39:00,VALID,916.423,VALID,0,VALID,94.5959,VALID,0.0509425,VALID,20.0362,VALID,11,VALID,1.64806,
2006-12-20, 01:40:00,VALID,916.416,VALID,0,VALID,94.5031,VALID,0.101885,VALID,20.0228,VALID,26,VALID,2.42485,
2006-12-20, 01:41:00,VALID,916.423,VALID,0,VALID,94.3899,VALID,0.0339617,VALID,20.0561,VALID,26,VALID,1.83775,
2006-12-20, 01:42:00,VALID,916.421,VALID,0,VALID,94.2717,VALID,0.0509425,VALID,20.0523,VALID,21,VALID,2.1592,
2006-12-20, 01:43:00,VALID,916.445,VALID,0,VALID,94.2208,VALID,0.0679233,VALID,20.0817,VALID,28,VALID,1.90718,
2006-12-20, 01:44:00,VALID,916.461,VALID,0,VALID,94.1305,VALID,0.0169808,VALID,20.0822,VALID,35,VALID,1.863,
2006-12-20, 01:45:00,VALID,916.465,VALID,0,VALID,93.8508,VALID,-0.0339617,VALID,20.1058,VALID,33,VALID,2.83479,
2006-12-20, 01:46:00,VALID,916.474,VALID,0,VALID,93.7096,VALID,0,VALID,20.1246,VALID,36,VALID,2.36895,
2006-12-20, 01:47:00,VALID,916.472,VALID,0,VALID,93.4337,VALID,0,VALID,20.1599,VALID,37,VALID,2.29948,
2006-12-20, 01:48:00,VALID,916.458,VALID,0,VALID,93.2391,VALID,0,VALID,20.1892,VALID,33,VALID,2.26615,
2006-12-20, 01:49:00,VALID,916.448,VALID,0,VALID,93.1514,VALID,0.0339617,VALID,20.2148,VALID,31,VALID,1.992,
2006-12-20, 01:50:00,VALID,916.44,VALID,0,VALID,93.1997,VALID,0,VALID,20.2285,VALID,32,VALID,1.68501,
2006-12-20, 01:51:00,VALID,916.451,VALID,0,VALID,93.3091,VALID,-0.0169808,VALID,20.215,VALID,28,VALID,1.84097,
2006-12-20, 01:52:00,VALID,916.445,VALID,0,VALID,93.4566,VALID,0,VALID,20.2024,VALID,21,VALID,1.37221,
2006-12-20, 01:53:00,VALID,916.451,VALID,0,VALID,93.4973,VALID,-0.0169808,VALID,20.1795,VALID,32,VALID,1.73674,
2006-12-20, 01:54:00,VALID,916.454,VALID,0,VALID,93.5189,VALID,-0.0169808,VALID,20.1631,VALID,25,VALID,1.90898,
2006-12-20, 01:55:00,VALID,916.459,VALID,0,VALID,93.4922,VALID,0,VALID,20.1733,VALID,32,VALID,1.98219,
2006-12-20, 01:56:00,VALID,916.471,VALID,0,VALID,93.5252,VALID,0.0169808,VALID,20.1833,VALID,31,VALID,1.72535,
2006-12-20, 01:57:00,VALID,916.476,VALID,0,VALID,93.557,VALID,0,VALID,20.1703,VALID,22,VALID,1.70785,
2006-12-20, 01:58:00,VALID,916.462,VALID,0,VALID,93.5507,VALID,0,VALID,20.1569,VALID,40,VALID,1.43441,
2006-12-20, 01:59:00,VALID,916.471,VALID,0,VALID,93.5888,VALID,-0.0849042,VALID,20.1609,VALID,30,VALID,1.5279,
2006-12-20, 02:00:00,VALID,916.48,VALID,0,VALID,93.6308,VALID,-0.118866,VALID,20.1589,VALID,14,VALID,1.66845,
2006-12-20, 02:01:00,VALID,916.481,VALID,0,VALID,93.7936,VALID,-0.118866,VALID,20.1428,VALID,3,VALID,1.66559,
2006-12-20, 02:02:00,VALID,916.471,VALID,0,VALID,93.8342,VALID,-0.101885,VALID,20.1363,VALID,21,VALID,1.73399,
2006-12-20, 02:03:00,VALID,916.469,VALID,0,VALID,93.9614,VALID,-0.118866,VALID,20.1269,VALID,28,VALID,1.56765,
2006-12-20, 02:04:00,VALID,916.454,VALID,0,VALID,93.9347,VALID,-0.118866,VALID,20.1105,VALID,31,VALID,1.80178,
2006-12-20, 02:05:00,VALID,916.432,VALID,0,VALID,93.7478,VALID,-0.118866,VALID,20.1036,VALID,36,VALID,2.01816,
2006-12-20, 02:06:00,VALID,916.43,VALID,0,VALID,93.6092,VALID,-0.0849042,VALID,20.1232,VALID,36,VALID,2.14262,
2006-12-20, 02:07:00,VALID,916.441,VALID,0,VALID,93.5443,VALID,-0.101885,VALID,20.1363,VALID,19,VALID,1.80214,
2006-12-20, 02:08:00,VALID,916.445,VALID,0,VALID,93.6168,VALID,-0.135847,VALID,20.1426,VALID,15,VALID,1.73418,
2006-12-20, 02:09:00,VALID,916.439,VALID,0,VALID,93.4769,VALID,-0.101885,VALID,20.153,VALID,26,VALID,1.66164,
2006-12-20, 02:10:00,VALID,916.42,VALID,0,VALID,93.4782,VALID,-0.0679233,VALID,20.1488,VALID,33,VALID,1.52604,
2006-12-20, 02:11:00,VALID,916.409,VALID,0,VALID,93.4706,VALID,-0.101885,VALID,20.1488,VALID,33,VALID,1.37573,
2006-12-20, 02:12:00,VALID,916.407,VALID,0,VALID,93.4985,VALID,-0.101885,VALID,20.1622,VALID,43,VALID,1.40225,
2006-12-20, 02:13:00,VALID,916.399,VALID,0,VALID,93.4566,VALID,-0.135847,VALID,20.1557,VALID,42,VALID,1.21943,
2006-12-20, 02:14:00,VALID,916.398,VALID,0,VALID,93.3332,VALID,-0.0509425,VALID,20.1582,VALID,32,VALID,1.7182,
2006-12-20, 02:15:00,VALID,916.407,VALID,0,VALID,93.3752,VALID,0,VALID,20.1669,VALID,31,VALID,2.09909,
2006-12-20, 02:16:00,VALID,916.388,VALID,0,VALID,93.2188,VALID,-0.0169808,VALID,20.184,VALID,47,VALID,2.10156,
2006-12-20, 02:17:00,VALID,916.376,VALID,0,VALID,93.3637,VALID,0,VALID,20.1867,VALID,46,VALID,1.32564,
2006-12-20, 02:18:00,VALID,916.368,VALID,0,VALID,93.5113,VALID,0,VALID,20.1803,VALID,45,VALID,1.62062,
2006-12-20, 02:19:00,VALID,916.35,VALID,0,VALID,93.5876,VALID,-0.0339617,VALID,20.1572,VALID,47,VALID,1.74962,
2006-12-20, 02:20:00,VALID,916.35,VALID,0,VALID,93.73,VALID,0,VALID,20.1373,VALID,56,VALID,1.49128,
2006-12-20, 02:21:00,VALID,916.366,VALID,0,VALID,93.8889,VALID,0,VALID,20.1279,VALID,33,VALID,1.256,
2006-12-20, 02:22:00,VALID,916.378,VALID,0,VALID,94.0352,VALID,0,VALID,20.1189,VALID,36,VALID,1.55344,
2006-12-20, 02:23:00,VALID,916.367,VALID,0,VALID,94.0898,VALID,0.0169808,VALID,20.0991,VALID,44,VALID,1.72676,
2006-12-20, 02:24:00,VALID,916.365,VALID,0,VALID,93.8609,VALID,0,VALID,20.0765,VALID,19,VALID,1.78544,
2006-12-20, 02:25:00,VALID,916.347,VALID,0,VALID,93.8037,VALID,-0.0169808,VALID,20.1055,VALID,19,VALID,1.76616,
2006-12-20, 02:26:00,VALID,916.338,VALID,0,VALID,93.5596,VALID,-0.0169808,VALID,20.1284,VALID,33,VALID,2.05984,
2006-12-20, 02:27:00,VALID,916.327,VALID,0,VALID,93.5189,VALID,0,VALID,20.151,VALID,28,VALID,1.84629,
2006-12-20, 02:28:00,VALID,916.304,VALID,0,VALID,93.482,VALID,0,VALID,20.1306,VALID,50,VALID,2.43114,
2006-12-20, 02:29:00,VALID,916.291,VALID,0,VALID,93.3701,VALID,0,VALID,20.1405,VALID,40,VALID,2.30824,
2006-12-20, 02:30:00,VALID,916.281,VALID,0,VALID,93.2697,VALID,0.0169808,VALID,20.1569,VALID,35,VALID,2.09551,
2006-12-20, 02:31:00,VALID,916.277,VALID,0,VALID,93.3053,VALID,-0.0169808,VALID,20.1634,VALID,39,VALID,1.58105,
2006-12-20, 02:32:00,VALID,916.257,VALID,0,VALID,93.4273,VALID,0,VALID,20.1507,VALID,30,VALID,1.59553,
2006-12-20, 02:33:00,VALID,916.242,VALID,0,VALID,93.4846,VALID,0,VALID,20.1477,VALID,40,VALID,2.24409,
2006-12-20, 02:34:00,VALID,916.237,VALID,0,VALID,93.421,VALID,-0.0169808,VALID,20.1445,VALID,49,VALID,2.17435,
2006-12-20, 02:35:00,VALID,916.244,VALID,0,VALID,93.5392,VALID,-0.0169808,VALID,20.1545,VALID,45,VALID,1.65742,
2006-12-20, 02:36:00,VALID,916.25,VALID,0,VALID,93.6486,VALID,-0.0169808,VALID,20.1375,VALID,38,VALID,1.73363,
2006-12-20, 02:37:00,VALID,916.242,VALID,0,VALID,93.5456,VALID,0,VALID,20.1214,VALID,39,VALID,2.30687,
2006-12-20, 02:38:00,VALID,916.245,VALID,0,VALID,93.4807,VALID,0,VALID,20.1472,VALID,28,VALID,1.93026,
2006-12-20, 02:39:00,VALID,916.249,VALID,0,VALID,93.3752,VALID,0,VALID,20.1505,VALID,9,VALID,2.89807,
2006-12-20, 02:40:00,VALID,916.262,VALID,0,VALID,93.4515,VALID,-0.0169808,VALID,20.1731,VALID,38,VALID,1.9517,
2006-12-20, 02:41:00,VALID,916.292,VALID,0,VALID,93.482,VALID,-0.0169808,VALID,20.1736,VALID,40,VALID,2.47124,
2006-12-20, 02:42:00,VALID,916.289,VALID,0,VALID,93.3485,VALID,0,VALID,20.1765,VALID,39,VALID,2.40313,
2006-12-20, 02:43:00,VALID,916.314,VALID,0,VALID,93.3892,VALID,-0.0169808,VALID,20.1773,VALID,35,VALID,2.14861,
2006-12-20, 02:44:00,VALID,916.331,VALID,0,VALID,93.4184,VALID,-0.0339617,VALID,20.1895,VALID,33,VALID,2.12587,
2006-12-20, 02:45:00,VALID,916.323,VALID,0,VALID,93.4057,VALID,0,VALID,20.1763,VALID,27,VALID,2.24551,
2006-12-20, 02:46:00,VALID,916.309,VALID,0,VALID,93.4248,VALID,0,VALID,20.1698,VALID,53,VALID,1.88796,
2006-12-20, 02:47:00,VALID,916.289,VALID,0,VALID,93.4871,VALID,-0.0169808,VALID,20.1798,VALID,26,VALID,1.19713,
2006-12-20, 02:48:00,VALID,916.298,VALID,0,VALID,93.7007,VALID,0,VALID,20.1731,VALID,314,VALID,1.99891,
2006-12-20, 02:49:00,VALID,916.329,VALID,0,VALID,94.0453,VALID,0,VALID,20.1505,VALID,331,VALID,2.06868,
2006-12-20, 02:50:00,VALID,916.335,VALID,0,VALID,94.3098,VALID,0.0169808,VALID,20.112,VALID,336,VALID,1.61395,
2006-12-20, 02:51:00,VALID,916.328,VALID,0,VALID,94.2679,VALID,0.0169808,VALID,20.0797,VALID,19,VALID,2.31399,
2006-12-20, 02:52:00,VALID,916.308,VALID,0,VALID,94.3365,VALID,0,VALID,20.063,VALID,28,VALID,1.99028,
2006-12-20, 02:53:00,VALID,916.314,VALID,0,VALID,94.1191,VALID,-0.0339617,VALID,20.0732,VALID,26,VALID,2.33866,
2006-12-20, 02:54:00,VALID,916.31,VALID,0,VALID,94.0428,VALID,0,VALID,20.0951,VALID,29,VALID,2.18253,
2006-12-20, 02:55:00,VALID,916.305,VALID,0,VALID,93.8826,VALID,0,VALID,20.1214,VALID,39,VALID,2.30984,
2006-12-20, 02:56:00,VALID,916.279,VALID,0,VALID,93.8444,VALID,-0.0169808,VALID,20.1271,VALID,33,VALID,2.06417,
2006-12-20, 02:57:00,VALID,916.272,VALID,0,VALID,93.5647,VALID,-0.0169808,VALID,20.1338,VALID,33,VALID,2.2136,
2006-12-20, 02:58:00,VALID,916.259,VALID,0,VALID,93.5354,VALID,-0.0169808,VALID,20.1698,VALID,49,VALID,1.49419,
2006-12-20, 02:59:00,VALID,916.27,VALID,0,VALID,93.5316,VALID,0.0169808,VALID,20.1827,VALID,41,VALID,2.20461,
2006-12-20, 03:00:00,VALID,916.272,VALID,0,VALID,93.6499,VALID,0,VALID,20.1768,VALID,39,VALID,1.88728,
2006-12-20, 03:01:00,VALID,916.257,VALID,0,VALID,93.7134,VALID,0.0169808,VALID,20.15,VALID,42,VALID,1.97293,
2006-12-20, 03:02:00,VALID,916.254,VALID,0,VALID,93.8864,VALID,0,VALID,20.1443,VALID,37,VALID,1.49107,
2006-12-20, 03:03:00,VALID,916.27,VALID,0,VALID,94.0784,VALID,0,VALID,20.1179,VALID,30,VALID,2.01119,
2006-12-20, 03:04:00,VALID,916.277,VALID,0,VALID,94.2857,VALID,0,VALID,20.0797,VALID,43,VALID,2.01124,
2006-12-20, 03:05:00,VALID,916.277,VALID,0,VALID,94.3747,VALID,-0.0169808,VALID,20.0506,VALID,34,VALID,2.13906,
2006-12-20, 03:06:00,VALID,916.272,VALID,0,VALID,94.4472,VALID,0,VALID,20.0342,VALID,33,VALID,2.1617,
2006-12-20, 03:07:00,VALID,916.283,VALID,0,VALID,94.5552,VALID,0,VALID,20.0211,VALID,39,VALID,1.61047,
2006-12-20, 03:08:00,VALID,916.284,VALID,0,VALID,94.5591,VALID,0.0169808,VALID,20.0114,VALID,39,VALID,2.11028,
2006-12-20, 03:09:00,VALID,916.28,VALID,0,VALID,94.5845,VALID,-0.0169808,VALID,20.0248,VALID,41,VALID,1.74848,
2006-12-20, 03:10:00,VALID,916.28,VALID,0,VALID,94.6201,VALID,0.0169808,VALID,20.0149,VALID,36,VALID,1.65589,
2006-12-20, 03:11:00,VALID,916.265,VALID,0,VALID,94.6773,VALID,0,VALID,20.0084,VALID,25,VALID,2.23383,
2006-12-20, 03:12:00,VALID,916.277,VALID,0,VALID,94.7587,VALID,0,VALID,19.9952,VALID,24,VALID,2.11547,
2006-12-20, 03:13:00,VALID,916.3,VALID,0,VALID,94.8045,VALID,0,VALID,19.9828,VALID,44,VALID,1.58213,
2006-12-20, 03:14:00,VALID,916.334,VALID,0,VALID,94.8719,VALID,0,VALID,19.9667,VALID,37,VALID,2.03267,
2006-12-20, 03:15:00,VALID,916.345,VALID,0,VALID,95.0283,VALID,0,VALID,19.9443,VALID,28,VALID,2.18697,
2006-12-20, 03:16:00,VALID,916.358,VALID,0,VALID,95.1338,VALID,-0.0169808,VALID,19.9409,VALID,27,VALID,2.77453,
2006-12-20, 03:17:00,VALID,916.357,VALID,0,VALID,95.1364,VALID,0,VALID,19.9307,VALID,29,VALID,2.35231,
2006-12-20, 03:18:00,VALID,916.332,VALID,0,VALID,95.0906,VALID,0,VALID,19.9344,VALID,41,VALID,2.01209,
2006-12-20, 03:19:00,VALID,916.359,VALID,0,VALID,95.0652,VALID,0.0169808,VALID,19.9344,VALID,26,VALID,2.53001,
2006-12-20, 03:20:00,VALID,916.363,VALID,0,VALID,95.0207,VALID,0.0169808,VALID,19.9374,VALID,35,VALID,2.43679,
2006-12-20, 03:21:00,VALID,916.382,VALID,0,VALID,94.9901,VALID,0,VALID,19.954,VALID,29,VALID,2.32832,
2006-12-20, 03:22:00,VALID,916.382,VALID,0,VALID,95.0194,VALID,0,VALID,19.9503,VALID,28,VALID,2.63472,
2006-12-20, 03:23:00,VALID,916.366,VALID,0,VALID,95.1071,VALID,0,VALID,19.9404,VALID,37,VALID,2.64509,
2006-12-20, 04:22:00,VALID,918.037,VALID,0,VALID,89.4993,VALID,238.92,VALID,21.3207,VALID,333,VALID,1.87419,
2006-12-20, 04:23:00,VALID,918.065,VALID,0,VALID,89.5286,VALID,132.535,VALID,21.4111,VALID,345,VALID,1.51523,
2006-12-20, 04:24:00,VALID,918.073,VALID,0,VALID,89.273,VALID,127.322,VALID,21.486,VALID,2,VALID,1.63932,
2006-12-20, 04:25:00,VALID,918.099,VALID,0,VALID,88.5482,VALID,153.524,VALID,21.5304,VALID,13,VALID,2.1349,
2006-12-20, 04:26:00,VALID,918.093,VALID,0,VALID,88.6181,VALID,189.166,VALID,21.6017,VALID,8,VALID,1.36858,
2006-12-20, 04:27:00,VALID,918.104,VALID,0,VALID,88.3473,VALID,116.302,VALID,21.6695,VALID,15,VALID,1.35938,
2006-12-20, 04:28:00,VALID,918.109,VALID,0,VALID,88.3346,VALID,120.445,VALID,21.6953,VALID,344,VALID,1.55774,
2006-12-20, 04:29:00,VALID,918.112,VALID,0,VALID,88.2214,VALID,117.949,VALID,21.7214,VALID,351,VALID,2.13502,
2006-12-20, 04:30:00,VALID,918.112,VALID,0,VALID,88.3702,VALID,115.538,VALID,21.7112,VALID,343,VALID,1.76563,
2006-12-20, 04:31:00,VALID,918.134,VALID,0,VALID,88.3333,VALID,116.098,VALID,21.7018,VALID,11,VALID,2.75595,
2006-12-20, 04:32:00,VALID,918.135,VALID,0,VALID,87.6377,VALID,112.515,VALID,21.6558,VALID,7,VALID,2.70126,
2006-12-20, 04:33:00,VALID,918.153,VALID,0,VALID,88.0243,VALID,121.039,VALID,21.6727,VALID,25,VALID,2.57649,
2006-12-20, 04:34:00,VALID,918.139,VALID,0,VALID,88.112,VALID,134.845,VALID,21.6431,VALID,18,VALID,1.89524,
2006-12-20, 04:35:00,VALID,918.155,VALID,0,VALID,88.1629,VALID,153.965,VALID,21.6566,VALID,24,VALID,2.00723,